This is the latest recevied weather packets stored in our database for station/object K8FJG-13. If no packets are shown the sender has not sent any weather packets the latest 10 day(s).
| Time | Temp. | Humidity | Pressure | Rain* | Wind** | Luminosity | Snow |
|---|---|---|---|---|---|---|---|
| 1777631796 | 5° C | 91% | 967.7 hPa | - | - | - | - |
| 1777631193 | 5° C | 91% | 967.8 hPa | - | - | - | - |
| 1777630590 | 5° C | 90% | 968 hPa | - | - | - | - |
| 1777629987 | 5° C | 89% | 967.9 hPa | - | - | - | - |
| 1777629384 | 5° C | 88% | 968.2 hPa | - | - | - | - |
| 1777628781 | 5° C | 89% | 968.2 hPa | - | - | - | - |
| 1777628178 | 5° C | 89% | 968.3 hPa | - | - | - | - |
| 1777627574 | 5° C | 87% | 968.1 hPa | - | - | - | - |
| 1777626971 | 5° C | 87% | 968.2 hPa | - | - | - | - |
| 1777626368 | 5° C | 86% | 968.2 hPa | - | - | - | - |
| 1777625765 | 5° C | 86% | 968.3 hPa | - | - | - | - |
| 1777625162 | 5° C | 87% | 968.1 hPa | - | - | - | - |
| 1777624559 | 5° C | 86% | 967.9 hPa | - | - | - | - |
| 1777623956 | 5° C | 87% | 968.2 hPa | - | - | - | - |
| 1777623353 | 5° C | 85% | 967.9 hPa | - | - | - | - |
| 1777622750 | 5° C | 84% | 968.1 hPa | - | - | - | - |
| 1777622147 | 5° C | 81% | 968.3 hPa | - | - | - | - |
| 1777621544 | 5° C | 83% | 968.4 hPa | - | - | - | - |
| 1777620941 | 4.44° C | 84% | 968.3 hPa | - | - | - | - |
| 1777620337 | 4.44° C | 85% | 968.2 hPa | - | - | - | - |
| 1777619734 | 4.44° C | 86% | 968.1 hPa | - | - | - | - |
| 1777619131 | 4.44° C | 84% | 968.2 hPa | - | - | - | - |
| 1777618528 | 4.44° C | 85% | 968.2 hPa | - | - | - | - |
| 1777617925 | 4.44° C | 84% | 968.3 hPa | - | - | - | - |
| 1777617322 | 4.44° C | 83% | 968.6 hPa | - | - | - | - |
* Rain since midnight (hover to see other rain measurements)
** Current wind speed in m/s (hover to see current wind gust speed)